Date,TemperatureHighF,TemperatureAvgF,TemperatureLowF,DewpointHighF,DewpointAvgF,DewpointLowF,HumidityHigh,HumidityAvg,HumidityLow,PressureMaxIn,PressureMinIn,WindSpeedMaxMPH,WindSpeedAvgMPH,GustSpeedMaxMPH,PrecipitationSumIn
2013-1-1,36.7,31.8,19.3,27.0,18.5,7.0,71,59,46,29.93,29.71,14,4,21,0.00
2013-1-2,30.1,21.1,12.5,17.0,9.0,1.0,70,60,52,30.10,29.89,9,2,19,0.00
2013-1-3,26.2,15.8,6.2,10.0,0.7,-5.0,64,53,31,30.14,30.00,5,2,11,0.00
2013-1-4,39.3,29.9,19.9,24.0,19.8,10.0,80,67,52,29.99,29.81,15,2,20,0.00
2013-1-5,42.1,33.5,24.4,25.0,21.2,16.0,84,62,37,30.25,29.84,9,2,16,0.00
2013-1-6,43.8,34.3,25.8,29.0,26.4,21.0,87,74,54,30.23,29.93,7,1,15,0.00
2013-1-7,39.1,33.6,28.0,30.0,24.6,16.0,88,71,45,30.40,29.96,7,1,15,0.00
2013-1-8,47.2,37.5,28.6,29.0,28.2,26.0,91,71,49,30.36,30.25,13,2,20,0.00
2013-1-9,44.6,37.0,25.9,36.0,29.9,24.0,94,76,57,30.39,29.97,8,1,14,0.00
2013-1-10,48.1,42.2,34.0,29.0,24.8,23.0,67,51,39,30.53,30.03,14,4,27,0.00
2013-1-11,41.2,35.4,27.4,36.0,29.1,23.0,94,78,63,30.52,30.22,3,0,8,0.13
2013-1-12,44.9,41.6,37.8,43.0,40.3,36.0,97,95,91,30.23,30.12,2,0,5,0.02
2013-1-13,53.2,47.4,41.9,50.0,46.0,41.0,98,95,89,30.15,29.98,6,1,12,0.00
2013-1-14,61.9,52.8,42.8,53.0,43.4,28.0,94,72,40,30.24,29.84,10,3,14,0.00
2013-1-15,42.5,38.9,35.1,28.0,26.1,24.0,69,60,54,30.31,30.21,3,1,8,0.00
2013-1-16,35.4,33.1,30.3,32.0,29.8,23.0,96,89,62,30.24,29.82,3,1,5,0.12
2013-1-17,42.5,35.8,30.0,33.0,28.0,15.0,95,75,53,30.08,29.83,10,2,20,0.31
2013-1-18,29.8,23.3,18.2,14.0,1.4,-5.0,53,39,27,30.45,30.06,9,3,17,0.00
2013-1-19,49.1,37.0,22.8,33.0,22.5,6.0,75,57,39,30.39,29.89,11,3,20,0.00
2013-1-20,54.2,42.3,29.3,34.0,25.7,10.0,74,54,33,29.92,29.54,18,5,28,0.00
2013-1-21,29.4,25.4,22.1,21.0,10.9,5.0,89,56,37,30.10,29.80,7,2,17,0.00
2013-1-22,24.8,21.0,14.0,20.0,8.5,-2.0,91,61,36,30.08,29.75,11,3,17,0.00
2013-1-23,16.3,11.8,7.3,1.0,-7.2,-11.0,63,43,29,30.14,30.06,12,4,21,0.00
2013-1-24,20.8,11.6,3.2,-6.0,-9.3,-12.0,55,40,24,30.22,30.06,13,4,21,0.00
2013-1-25,24.0,16.7,9.0,13.0,-6.0,-12.0,84,38,23,30.30,30.07,11,3,17,0.00
2013-1-26,25.3,18.0,11.9,13.0,3.1,-6.0,85,56,29,30.23,30.00,11,2,14,0.00
2013-1-27,31.3,21.5,12.7,4.0,0.8,-5.0,64,43,26,30.46,30.23,12,3,16,0.00
2013-1-28,32.4,25.7,20.1,28.0,12.8,2.0,93,62,32,30.45,30.01,4,1,7,0.00
2013-1-29,34.5,30.9,26.0,33.0,28.5,24.0,95,90,84,30.19,30.02,2,0,3,0.13
2013-1-30,62.6,50.4,34.2,58.0,48.2,33.0,98,92,83,30.15,29.46,12,3,18,0.20
2013-1-31,60.9,48.6,32.0,58.0,37.0,15.0,94,67,37,29.59,28.97,18,7,30,0.15